Location: Newark
(45.5000°N, 11.4167°E)
Time: 17:23:44
(UTC+00:00)

A-11 Canister half - Pass Details

Date: 23 August 2019
Orbit: 1513 x 1686 km, 47.2° (Epoch: 22 September)

Event Time Altitude Azimuth Distance (km) Brightness Sun altitude
Rises 15:35:47 0° 204° (SSW) 4,650 12.0 25.8°
Reaches altitude 10° 15:39:08 10° 196° (SSW) 3,682 11.4 25.2°
Maximum altitude 15:47:11 35° 135° (SE) 2,323 9.9 23.8°
Drops below altitude 10° 15:55:28 10° 75° (ENE) 3,795 10.6 22.3°
Sets 15:58:56 0° 67° (ENE) 4,809 11.0 21.7°
